Edinburg, TX

5:20 PM CDT on March 22, 2017 (GMT -0500)
Edinburg

Weather History for KEBG - December, 2012

Change the Weather History Date:

Wednesday, December 19, 2012

  Actual Average (KMFE) Record (KMFE)
Temperature  
Mean Temperature 82 °F -  
Max Temperature 89 °F 68 °F 89 °F (2012)
Min Temperature 74 °F 46 °F 28 °F (1933)
Cooling Degree Days 16    
Growing Degree Days 32 (Base 50)    
Moisture  
Dew Point 69 °F    
Average Humidity 71    
Maximum Humidity 86    
Minimum Humidity 47    
Precipitation  
Precipitation 0.00 in - - ()
Sea Level Pressure  
Sea Level Pressure 29.75 in    
Wind  
Wind Speed 15 mph (SSE)    
Max Wind Speed 26 mph    
Max Gust Speed 33 mph    
Visibility 6 miles    
Events      
Averages and records for this station are not official NWS values.
T = Trace of Precipitation, MM = Missing Value Source: NWS Daily Summary

Daily Weather History Graph

Daily Weather History Graph

Search for Another Location

Airport or City:

Trip Planner

Search our weather history database for the weather conditions in past years. The results will help you decide how hot, cold, wet, or windy it might be!

Date:

Astronomy

Dec. 19, 2012 Rise Set
Actual Time 7:15 AM CST 5:44 PM CST
Civil Twilight 6:50 AM CST 6:09 PM CST
Nautical Twilight 6:21 AM CST 6:38 PM CST
Astronomical Twilight 5:52 AM CST 7:07 PM CST
Moon 12:01 PM CST (12/19) No Moon Set
Length of Visible Light 11h 19m
Length of Day
10h 28m
Waxing Crescent, 45% of the Moon is Illuminated
Dec 19
Waxing Crescent
Dec 19
First Quarter
Dec 28
Full
Jan 4
Last Quarter
Jan 11
New

Hourly Weather History & Observations

Time (CST) Temp. Heat Index Dew Point Humidity Pressure Visibility Wind Dir Wind Speed Gust Speed Precip Events Conditions
12:15 AM 76.3 °F - 69.3 °F 79% 29.83 in 7.0 mi SSE 12.7 mph 16.1 mph N/A   Overcast
12:35 AM 76.1 °F - 69.3 °F 79% 29.82 in 5.0 mi SSE 13.8 mph 21.9 mph N/A   Haze
12:55 AM 76.1 °F - 69.3 °F 79% 29.82 in 5.0 mi SSE 15.0 mph 19.6 mph N/A   Haze
1:15 AM 76.1 °F - 69.4 °F 80% 29.81 in 7.0 mi SSE 15.0 mph 19.6 mph N/A   Overcast
1:35 AM 76.1 °F - 69.4 °F 80% 29.81 in 5.0 mi SSE 13.8 mph 23.0 mph N/A   Haze
1:55 AM 75.6 °F - 69.6 °F 82% 29.80 in 7.0 mi SSE 12.7 mph - N/A   Mostly Cloudy
2:15 AM 75.4 °F - 69.4 °F 82% 29.80 in 7.0 mi SSE 13.8 mph 20.7 mph N/A   Mostly Cloudy
2:35 AM 75.4 °F - 69.4 °F 82% 29.80 in 7.0 mi SSE 11.5 mph 18.4 mph N/A   Mostly Cloudy
2:55 AM 75.7 °F - 69.6 °F 81% 29.80 in 5.0 mi SSE 10.4 mph 19.6 mph N/A   Haze
3:15 AM 76.1 °F - 69.6 °F 80% 29.79 in 5.0 mi SSE 11.5 mph - N/A   Haze
3:35 AM 76.6 °F - 69.4 °F 78% 29.78 in 5.0 mi SSE 13.8 mph 21.9 mph N/A   Haze
3:55 AM 76.8 °F - 69.4 °F 78% 29.77 in 7.0 mi SSE 15.0 mph 25.3 mph N/A   Overcast
4:15 AM 76.6 °F - 69.4 °F 78% 29.77 in 5.0 mi SSE 15.0 mph 25.3 mph N/A   Haze
4:35 AM 76.6 °F - 69.4 °F 78% 29.77 in 5.0 mi SSE 12.7 mph 20.7 mph N/A   Haze
4:55 AM 76.5 °F - 69.4 °F 79% 29.77 in 5.0 mi SSE 16.1 mph 23.0 mph N/A   Haze
5:15 AM 77.0 °F - 69.3 °F 77% 29.76 in 5.0 mi SSE 16.1 mph 23.0 mph N/A   Haze
5:35 AM 76.6 °F - 69.4 °F 78% 29.76 in 5.0 mi SSE 17.3 mph 23.0 mph N/A   Haze
5:55 AM 76.5 °F - 69.4 °F 79% 29.76 in 7.0 mi SSE 19.6 mph 25.3 mph N/A   Mostly Cloudy
6:15 AM 76.5 °F - 69.4 °F 79% 29.77 in 7.0 mi South 16.1 mph 23.0 mph N/A   Mostly Cloudy
6:35 AM 76.6 °F - 69.4 °F 78% 29.77 in 5.0 mi SSE 15.0 mph 25.3 mph N/A   Haze
6:55 AM 76.6 °F - 69.4 °F 78% 29.77 in 7.0 mi SSE 16.1 mph 25.3 mph N/A   Mostly Cloudy
7:15 AM 76.8 °F - 69.6 °F 78% 29.77 in 7.0 mi SSE 19.6 mph 26.5 mph N/A   Overcast
7:35 AM 76.5 °F - 69.3 °F 78% 29.77 in 5.0 mi SSE 15.0 mph 23.0 mph N/A   Haze
7:55 AM 76.8 °F - 69.3 °F 77% 29.78 in 4.0 mi SSE 19.6 mph 27.6 mph N/A   Haze
8:15 AM 77.2 °F - 69.1 °F 76% 29.79 in 5.0 mi SSE 16.1 mph 21.9 mph N/A   Haze
8:35 AM 77.5 °F - 68.9 °F 75% 29.79 in 5.0 mi SSE 17.3 mph 25.3 mph N/A   Haze
8:55 AM 78.1 °F - 68.9 °F 73% 29.80 in 5.0 mi South 16.1 mph 25.3 mph N/A   Haze
9:15 AM 78.6 °F - 68.4 °F 71% 29.80 in 5.0 mi South 20.7 mph 28.8 mph N/A   Haze
9:35 AM 80.1 °F 82.8 °F 68.5 °F 68% 29.80 in 4.0 mi South 19.6 mph 28.8 mph N/A   Haze
9:55 AM 79.3 °F - 68.4 °F 69% 29.81 in 4.0 mi South 20.7 mph 28.8 mph N/A   Haze
10:15 AM 81.3 °F 84.0 °F 67.8 °F 63% 29.80 in 5.0 mi South 20.7 mph 33.4 mph N/A   Haze
10:35 AM 81.1 °F 83.9 °F 68.0 °F 64% 29.80 in 5.0 mi SSE 19.6 mph 31.1 mph N/A   Haze
10:55 AM 81.7 °F 84.5 °F 68.2 °F 63% 29.80 in 5.0 mi South 20.7 mph 28.8 mph N/A   Haze
11:15 AM 83.7 °F 86.2 °F 67.1 °F 57% 29.78 in 5.0 mi South 26.5 mph 31.1 mph N/A   Haze
11:35 AM 84.0 °F 86.8 °F 67.1 °F 57% 29.78 in 5.0 mi South 23.0 mph 32.2 mph N/A   Haze
11:55 AM 85.3 °F 87.9 °F 66.9 °F 54% 29.77 in 5.0 mi South 23.0 mph 31.1 mph N/A   Haze
12:15 PM 85.6 °F 87.9 °F 66.4 °F 52% 29.75 in 5.0 mi South 20.7 mph 31.1 mph N/A   Haze
12:35 PM 87.1 °F 89.5 °F 66.4 °F 50% 29.74 in 5.0 mi South 25.3 mph 32.2 mph N/A   Haze
12:55 PM 87.8 °F 90.4 °F 66.2 °F 49% 29.72 in 5.0 mi South 17.3 mph 27.6 mph N/A   Haze
1:15 PM 87.1 °F 89.5 °F 66.2 °F 50% 29.71 in 5.0 mi South 20.7 mph 28.8 mph N/A   Haze
1:55 PM 87.8 °F 90.4 °F 66.4 °F 49% 29.69 in 5.0 mi South 20.7 mph 26.5 mph N/A   Haze
2:15 PM 88.9 °F 91.4 °F 66.2 °F 47% 29.68 in 5.0 mi SSE 16.1 mph 25.3 mph N/A   Haze
2:35 PM 88.3 °F 90.5 °F 66.0 °F 47% 29.68 in 4.0 mi SSE 18.4 mph 24.2 mph N/A   Haze
2:55 PM 89.1 °F 91.7 °F 66.4 °F 47% 29.67 in 3.0 mi South 16.1 mph 24.2 mph N/A   Haze
3:15 PM 88.7 °F 91.9 °F 67.1 °F 49% 29.67 in 5.0 mi South 17.3 mph 23.0 mph N/A   Haze
3:35 PM 87.6 °F 91.1 °F 67.8 °F 52% 29.67 in 5.0 mi SSE 15.0 mph 24.2 mph N/A   Haze
3:55 PM 86.9 °F 90.3 °F 67.8 °F 53% 29.67 in 5.0 mi SSE 16.1 mph 26.5 mph N/A   Haze
4:15 PM 86.5 °F 89.6 °F 67.6 °F 53% 29.67 in 5.0 mi SSE 18.4 mph 21.9 mph N/A   Haze
4:35 PM 85.1 °F 88.2 °F 68.0 °F 56% 29.67 in 5.0 mi SSE 11.5 mph 24.2 mph N/A   Haze
4:55 PM 84.0 °F 87.0 °F 67.8 °F 58% 29.67 in 5.0 mi SSE 16.1 mph 20.7 mph N/A   Haze
5:15 PM 83.3 °F 86.2 °F 67.5 °F 59% 29.67 in 5.0 mi SSE 19.6 mph 24.2 mph N/A   Haze
5:35 PM 82.0 °F 84.7 °F 67.5 °F 61% 29.67 in 7.0 mi SSE 18.4 mph 23.0 mph N/A   Clear
5:55 PM 80.6 °F 83.2 °F 68.0 °F 65% 29.68 in 5.0 mi SSE 12.7 mph - N/A   Haze
6:15 PM 79.9 °F - 68.5 °F 68% 29.69 in 7.0 mi SSE 13.8 mph 20.7 mph N/A   Clear
6:35 PM 79.2 °F - 68.9 °F 71% 29.70 in 7.0 mi SSE 11.5 mph - N/A   Clear
6:55 PM 78.6 °F - 68.9 °F 72% 29.71 in 7.0 mi SSE 10.4 mph - N/A   Clear
7:15 PM 77.9 °F - 68.9 °F 74% 29.72 in 7.0 mi South 13.8 mph 18.4 mph N/A   Clear
7:35 PM 77.5 °F - 68.9 °F 75% 29.72 in 7.0 mi SSE 12.7 mph 18.4 mph N/A   Clear
7:55 PM 77.0 °F - 69.1 °F 76% 29.73 in 7.0 mi South 10.4 mph - N/A   Clear
8:15 PM 76.6 °F - 69.3 °F 78% 29.74 in 7.0 mi SSE 8.1 mph - N/A   Clear
8:35 PM 76.1 °F - 69.4 °F 80% 29.75 in 7.0 mi SSE 10.4 mph 17.3 mph N/A   Clear
8:55 PM 76.1 °F - 69.8 °F 81% 29.75 in 7.0 mi SSE 11.5 mph - N/A   Clear
9:15 PM 75.7 °F - 69.8 °F 82% 29.76 in 5.0 mi South 10.4 mph - N/A   Haze
9:35 PM 75.2 °F - 69.8 °F 83% 29.76 in 5.0 mi South 9.2 mph - N/A   Haze
9:55 PM 75.2 °F - 69.8 °F 83% 29.77 in 5.0 mi South 9.2 mph 16.1 mph N/A   Haze
10:15 PM 74.7 °F - 69.6 °F 84% 29.77 in 5.0 mi South 9.2 mph - N/A   Haze
10:35 PM 74.5 °F - 69.6 °F 85% 29.78 in 5.0 mi South 9.2 mph - N/A   Clear
10:55 PM 74.5 °F - 69.8 °F 85% 29.78 in 5.0 mi South 9.2 mph - N/A   Haze
11:15 PM 74.5 °F - 69.8 °F 85% 29.79 in 4.0 mi South 9.2 mph - N/A   Haze
11:35 PM 74.5 °F - 69.8 °F 85% 29.79 in 5.0 mi South 8.1 mph - N/A   Clear
11:55 PM 74.3 °F - 69.8 °F 86% 29.79 in 4.0 mi South 8.1 mph - N/A   Clear